Regional Weather Roundup
Issued by NWS

Home | Current Version | Previous Version | Graphics & Text | Print | Product List | Glossary On
Versions: 1 2 3 4 5 6 7 8 9 10 11 12 13 14 15 16 17 18 19 20 21 22 23 24 25 26 27 28 29 30 31 32 33 34 35 36 37 38 39 40 41 42 43 44 45 46 47 48 49
915
ASUS45 KBOU 021607
RWRCO

WEATHER ROUNDUP FOR COLORADO
NATIONAL WEATHER SERVICE DENVER/BOULDER CO
1000 AM MDT MON MAY 02 2016

NOTE: "FAIR" INDICATES FEW OR NO CLOUDS BELOW 12000 FEET WITH NO
SIGNIFICANT WEATHER AND/OR OBSTRUCTIONS TO VISIBILITY.

COZ001>005-013-030-031-021700-
...NORTHWEST COLORADO...

CITY           SKY/WX    TMP DP  RH WIND       PRES   REMARKS
CRAIG          FAIR      44  26  49 VRB6      30.28F
HAYDEN         FAIR      41  25  52 CALM      30.28F
MEEKER         FAIR      46  30  53 CALM      30.27F
MOUNT WERNER   NOT AVBL
STEAMBOAT SPGS PTSUNNY   42  26  51 W3        30.27S
WALDEN         FAIR      34  21  60 CALM      30.29S
$$

COZ006>008-011-021700-
...WEST CENTRAL VALLEYS...

CITY           SKY/WX    TMP DP  RH WIND       PRES   REMARKS
GRAND JUNCTION FAIR      52  39  61 S5        30.24R
MONTROSE       CLOUDY    47  39  74 CALM      30.29R
EAGLE          MOSUNNY   46  28  49 CALM      30.28F
RIFLE          PTSUNNY   50  39  66 CALM      30.26S
DELTA          NOT AVBL
NUCLA          NOT AVBL
$$

COZ017>023-064>068-021700-
...SOUTHWEST COLORADO...

CITY           SKY/WX    TMP DP  RH WIND       PRES   REMARKS
DURANGO        FAIR      44  35  70 N5        30.29R
CORTEZ         FAIR      48  34  58 VRB3      30.27S
PAGOSA SPRINGS CLOUDY    37  33  88 CALM      30.30S
TELLURIDE      CLOUDY    35  28  75 CALM      30.32S
WOLF CREEK PAS CLOUDY    27  27 100 N5        30.36S WCI  21
$$

COZ009-010-012-014-032>034-037-058>063-021700-
...CENTRAL COLORADO...

CITY           SKY/WX    TMP DP  RH WIND       PRES   REMARKS
ASPEN          PTSUNNY   46  27  47 NE7       30.26S
BUENA VISTA    FAIR      37  29  73 E3        30.27F
COPPER MTN     NOT AVBL
BERTHOUD PASS  FAIR      18   9  68 N15G26    30.30S WCI   3
COTTONWOOD PAS FAIR      37  28  70 CALM      30.29S
GUNNISON       CLOUDY    37  28  70 NE3       30.31S
KREMMLING      FAIR      37  21  52 CALM      30.31F
LEADVILLE      FAIR      34  17  50 N13       30.27S WCI  25
MONARCH PASS   CLOUDY    23  21  93 MISG      30.43R FOG
SALIDA         FAIR      40  29  66 CALM      30.35S
SUNLIGHT       CLOUDY    32  28  86 CALM        N/A
WILKERSON PASS FAIR      27  23  86 N9        30.32R WCI  17
$$

COZ069>075-021700-
...SAN LUIS VALLEY/SANGRE DE CRISTO MOUNTAINS...

CITY           SKY/WX    TMP DP  RH WIND       PRES   REMARKS
ALAMOSA        PTSUNNY   40  29  64 W6        30.28S
LA VETA PASS   FOG       32  28  86 MISG      30.28R VSB 1
SAGUACHE       PTSUNNY   37  30  75 SE6       30.29S
$$

COZ035-036-038>040-021700-
...NORTHERN COLORADO FRONT RANGE...

CITY           SKY/WX    TMP DP  RH WIND       PRES   REMARKS
DENVER INTL AP FAIR      42  28  57 SW7       30.24F
DMNS CITY PARK   N/A     44  27  50 SE7       30.25F
AURORA         FAIR      39  29  67 SW5       30.26F
FRONT RANGE AP MOSUNNY   39  30  70 SW5       30.26F
ERIE MUNI ARPT FAIR      44  28  51 S3        30.25F
BOULDER MUN AP FAIR      45  21  39 CALM      30.24F
CENTENNIAL     FAIR      38  29  70 CALM      30.25F
BROOMFIELD     SUNNY     43  30  61 S6        30.25F
FORT COLLINS   FAIR      43  23  45 S3        30.25F
LONGMONT       FAIR      49  26  40 CALM      30.25F
$$

COZ041-046-047-076>085-087-088-021700-
...PIKES PEAK/PALMER DIVIDE AND SOUTHERN FOOTHILLS...

CITY           SKY/WX    TMP DP  RH WIND       PRES   REMARKS
COLO. SPRINGS  FAIR      42  24  49 E3        30.27S
A. F. ACADEMY  FAIR      37  23  56 SE1       30.25F
SCHRIEVER AFB  NOT AVBL
ELLICOTT       NOT AVBL
FALCON         FAIR      38  24  58 S3        30.27S
FORT CARSON    FAIR      44  26  49 VRB3      30.25F
LIMON          FAIR      36  29  75 W10       30.26F
MONUMENT HILL  FAIR      32  25  74 CALM      30.27S
TRINIDAD       FAIR      43  31  62 W7        30.26F
$$

COZ042>045-048>051-090-091-021700-
...NORTHEAST COLORADO...

CITY           SKY/WX    TMP DP  RH WIND       PRES   REMARKS
GREELEY ARPT   FAIR      45  30  57 NW8       30.26S
AKRON          FAIR      44  33  65 W10       30.23S
BURLINGTON     FAIR      48  28  46 W9        30.23F
WRAY           NOT AVBL
STERLING       FAIR      52  32  46 W5        30.21F
HOLYOKE        NOT AVBL
FORT MORGAN    FAIR      47  29  48 W9        30.25S
$$

COZ086-089-092>099-021700-
...SOUTHEAST COLORADO...

CITY           SKY/WX    TMP DP  RH WIND       PRES   REMARKS
PUEBLO         FAIR      46  31  55 S5        30.27F
LA JUNTA       FAIR      48  33  56 W8        30.28S
LAMAR          FAIR      50  33  52 N6        30.25F
SPRINGFIELD      N/A     48  34  58 NW13      30.25F
$$




USA.gov is the U.S. government's official web portal to all federal, state and local government web resources and services.